Regional Weather Roundup
Issued by NWS

Home | Current Version | Previous Version | Text Only | Print | Product List | Glossary On
Versions: 1 2 3 4 5 6 7 8 9 10 11 12 13 14 15 16 17 18 19 20 21 22 23 24 25 26 27 28 29 30 31 32 33 34 35 36 37 38 39 40 41 42 43 44 45 46 47 48 49 50
000
ASHW40 PHFO 061843
RWRHI

WEATHER ROUNDUP FOR HAWAII
NATIONAL WEATHER SERVICE HONOLULU HI
800 AM HST FRI MAR 06 2015

THIS IS AN AUTOMATED REPORT THAT HAS NOT BEEN QUALITY CONTROLLED.

NOTE..."FAIR" INDICATES FEW OR NO CLOUDS BELOW 12,000 FEET WITH NO
SIGNIFICANT WEATHER AND/OR OBSTRUCTIONS TO VISIBILITY.

* - THESE SITES REPORT LIMITED FIELDS

HIZ001>004-061900-
KAUAI-NIIHAU-

CITY           SKY/WX    TMP DP  RH WIND       PRES   REMARKS
LIHUE APT      MOSUNNY   72  54  53 N23G31    30.01R
PORT ALLEN*      N/A     63 N/A N/A N6          N/A
POIPU*           N/A     68 N/A N/A NE8G20      N/A
PRINCEVILLE*     N/A     66 N/A N/A MISG        N/A
KOKOLE POINT*  NOT AVBL
MOLOAA DAIRY*  NOT AVBL
WAIMEA HTS*      N/A     72  54  53 W3          N/A
PUU OPAE*        N/A     61  50  67 NE1G16      N/A
PUU LUA*       NOT AVBL
MAKAHA RIDGE*  NOT AVBL
$$

HIZ005>011-061900-
OAHU-

CITY           SKY/WX    TMP DP  RH WIND       PRES   REMARKS
HONOLULU       MOSUNNY   65  57  75 NW10      29.94S
KALAELOA       SUNNY     68  56  65 NE9G18    29.95S
KANEOHE MCB    CLOUDY    70  59  68 N16       29.95R
WHEELER FIELD  FAIR      64  57  78 N9        29.95S
BELLOWS*         N/A    N/A N/A N/A N17G25      N/A
KAHUKU*          N/A    N/A N/A N/A N5G12       N/A
WHEELER*       NOT AVBL
WAIANAE HARBOR NOT AVBL
DILLINGHAM*      N/A     68  57  68 MISG        N/A
KAHUKU TRN*      N/A     64  55  72 NE7G17      N/A
KAWAILOA*        N/A     63  57  82 N9G15       N/A
KII*             N/A     70  57  64 N14G21      N/A
MAKUA RANGE*     N/A     66  57  72 E12G23      N/A
OAHU FOREST NW   N/A     57  14  18 CALM        N/A
SCHOFIELD BRK*   N/A     61  54  77 MISG        N/A
SCHOFIELD S*   NOT AVBL
WAIANAE VLY*     N/A     66  59  77 VRB12G26    N/A
KUAOKALA*        N/A     64  55  72 CALM        N/A
HONOULIUULI*   NOT AVBL
MOKUOLOE IS*     N/A    N/A N/A N/A MISG        N/A
PALEHUA*         N/A     73  57  56 CALM        N/A
WAIAWA PHB*    NOT AVBL
$$

HIZ012>013-061900-
MOLOKAI-

CITY           SKY/WX    TMP DP  RH WIND       PRES   REMARKS
MOLOKAI AIRPT  LGT RAIN  63  63 100 N16G24    29.95R
KALAUPAPA      NOT AVBL
MAKAPULAPAI*     N/A     66  61  82 NE12G18     N/A
MOLOKAI 1*       N/A     57  57 100 N12G31      N/A
PUU ALII*        N/A     52  52 100 SE2G8       N/A
$$

HIZ016-061900-
KAHOOLAWE-

CITY           SKY/WX    TMP DP  RH WIND       PRES   REMARKS
KAHOOLAWE*       N/A     61 N/A N/A NE20G32     N/A
HAKIOAWA*        N/A     64  64 100 MISG      30.32S
HONOKANAIA*      N/A     70  63  79 N18G36      N/A
KANELOA*         N/A     66  64  94 MISG        N/A
KEALIALALO*    NOT AVBL
LUA MAKIKA*    NOT AVBL
$$

HIZ014>015-061900-
LANAI-

CITY           SKY/WX    TMP DP  RH WIND       PRES   REMARKS
LANAI CITY     FAIR      65  61  87 NE28G35   29.94S
LANAI 1*         N/A     66  66 100 NE22G35     N/A
$$

HIZ017>028-061900-
MAUI-

CITY           SKY/WX    TMP DP  RH WIND       PRES   REMARKS
KAHULUI        LGT RAIN  66  63  88 NE20      29.96R
KAPALUA-W MAUI LGT RAIN  64  63  94 NE17      29.95R
HANA AIRPORT   RAIN      64  64 100 NW9       29.99R VSB 1/2
HANA*            N/A     64 N/A N/A W5          N/A
HALEAKALA SUMM   N/A     37  36  93 E9G21       N/A
MAALAEA BAY*   NOT AVBL
HALEAKALA*     NOT AVBL
KAUPO GAP*       N/A     55  50  82 SE3         N/A
KULA 1*          N/A     46  41  81 CALM        N/A
$$

HIZ023>026-061900-
BIG ISLAND OF HAWAII COAST AND LOWER SLOPES-

CITY           SKY/WX    TMP DP  RH WIND       PRES   REMARKS
KAILUA KONA    MOSUNNY   72  61  68 NE10      29.86R
HILO           CLOUDY    68  65  90 NW10      29.91R
HONOKAA*       NOT AVBL
KAWAIHAE MWT*    N/A     73 N/A N/A E2          N/A
KAWAIHAE*        N/A     73 N/A N/A SW2         N/A
SOUTH POINT*     N/A     68 N/A N/A N2          N/A
UPOLU AIRPORT*   N/A    N/A N/A N/A E13G20      N/A
KAMUELA*       CLOUDY    63  61  94 N12       29.98R
HAKALAU*         N/A     50  50 100 E1          N/A
KALOKO-HONOKO*   N/A     73  63  68 N3        29.85R
PALI 2*          N/A     66  57  72 S2G18       N/A
KEALAKOMO*       N/A     73  59  60 N23G38      N/A
KAUPULEHU*       N/A     72  59  64 S3          N/A
KAPAPALA*        N/A     62  60  93 CALM        N/A
LOWER KAHUKU*    N/A     57  55  94 N2          N/A
PUHE CS*         N/A     72  61  68 E3          N/A
PUHO CS*         N/A     70  58  66 E2          N/A
PTA KEAMUKU*     N/A     59  54  82 CALM        N/A
WAIKOLOA*        N/A     73  57  56 NE18G26     N/A
$$

HIZ027>028-061900-
BIG ISLAND OF HAWAII INTERIOR AND SUMMMITS-

CITY           SKY/WX    TMP DP  RH WIND       PRES   REMARKS
BRADSHAW FIELD CLOUDY    56  47  72 N1        30.15R
MK VISITOR CEN NOT AVBL
MAUNA KEA*       N/A     28 -22  10 NW56        N/A  WCI   8
MAUNA LOA*       N/A     39 -15   9 MISG        N/A
MAUNA LOA 1*   NOT AVBL
PTA KIPUKA*      N/A     55  50  82 E3          N/A
PTA RANGE 17*    N/A     52  48  87 E6          N/A
PTA WEST*        N/A     59  52  77 SE6G12      N/A
NENE CABIN*      N/A     48  41  76 W2          N/A
AHUMOA*          N/A     55  49  80 SW3         N/A
PTA PORTABLE*  NOT AVBL
PUU MALI*      NOT AVBL
$$

HIC003-061900-
NORTHWEST ISLANDS-

CITY           SKY/WX    TMP DP  RH WIND       PRES   REMARKS
MIDWAY ISLAND  MOCLDY    57  57 100 E22G33    30.34R
MIDWAY NOS*    NOT AVBL
FRENCH FRIGATE NOT AVBL
$$

PHZ110>124-180-061900-
BUOY REPORTS

STATION/POSITION TIME  TEMP    WIND        PRES    WAVE   SWELL
                       AIR SEA DIR/SP/G            HT/PER HT/DIR
                 (UTC) (F)     (DEG/KT/KT) (MB)    (FT/S) (FT/D)
BUOY 51001       NOT AVBL
BUOY 51101       1800   66 73   30/ 21/ 27 1018.4R  10/ 9   7/ 30
BUOY 51100       1700   68 74   20/ 17/ 21 1013.0R
BUOY 51003       1800   74 77   40/ 21/ 23 1012.7R  11/ 9   7
BUOY 51004       1716   74 78   50/ 16/ 17 1010.2R   7/ 8   5/ 90
BARBERS PT BUOY  NOT AVBL
WAIMEA BAY BUOY  1800      76                N/A     9/ 9   3/340
KAILUA BAY BUOY  1800      75                N/A     7/ 9   2/ 30
LANAI BUOY       1800      76                N/A     4/10   2/210
BARBERS PT 2     1800      77                N/A     3/13   2/210
PAUWELA MAUI     1800      74                N/A     9/10   3/ 10
HILO             1800      77                N/A     8/10   3/ 30
KANEOHE BAY BUOY 1800      75                N/A     8/10   3
HANALEI KAUAI    NOT AVBL
KAHULUI HARBOR   1800   68 74   40/ 12/ 19 1014.1R
HONOLULU HARBOR  1800   71 76   60/  5/ 12 1013.9R
KILO NALU        NOT AVBL
HILO HARBOR      1800          330/ 10/ 12 1012.7R
MOKUOLOE         1800   70 74   20/ 15/ 18 1014.6R
NAWILIWILI       1800   68 78  360/  7/ 11 1015.7R
WHOTS BUOY       NOT AVBL
BUOY 51028       NOT AVBL
$$

......................KEY........................................
  SKY/WX - SKY CONDITIONS/PRESENT WEATHER
  TMP    - TEMPERATURE IN FAHRENHEIT
  DWPT   - DEWPOINT IN FAHRENHEIT
  RH     - RELATIVE HUMIDITY IN PERCENT
  WIND   - DIRECTION AND SPEED /MPH FOR ISLANDS...KTS FOR BUOYS/
  PRES   - MEAN SEA LEVEL PRESSURE IN INCHES OF HG
  VSB    - VISIBILITY IN MILES
  HX     - HEAT INDEX
  WCI    - WIND CHILL INDEX
  VRB    - VARIABLE WIND DIRECTION
  N/A    - NOT AVAILABLE


USA.gov is the U.S. government's official web portal to all federal, state and local government web resources and services.